WLF88S FCPP-FOOL

Flight info

Callsign WLF88S
Flight time 1h 55m
Altitude 3000
Route IT DCT PG DCT LV
Aircraft AEST/L-SDFGRY/S

Departure

Time 2026-05-04 22:30
Airport Antonio Agostinho-Neto International Airport (FCPP)

Arrival

Time 2026-05-05 00:26
Airport Libreville Leon M'ba International Airport (FOOL)
Time Latitude Longitude Altitude Speed Heading
2026-05-04 22:16 -4.81940 11.88556 68 ft 0 kts 347°
2026-05-04 22:27 -4.81939 11.88556 68 ft 1 kts 349°
2026-05-04 22:27 -4.81939 11.88578 67 ft 8 kts 119°
2026-05-04 22:27 -4.81945 11.88648 63 ft 13 kts 75°
2026-05-04 22:27 -4.81920 11.88725 60 ft 8 kts 27°
2026-05-04 22:28 -4.81851 11.88723 60 ft 12 kts 345°
2026-05-04 22:28 -4.81750 11.88696 59 ft 18 kts 345°
2026-05-04 22:28 -4.81614 11.88662 60 ft 22 kts 343°
2026-05-04 22:28 -4.81462 11.88616 61 ft 24 kts 353°
2026-05-04 22:29 -4.81297 11.88587 61 ft 25 kts 346°
2026-05-04 22:29 -4.81196 11.88560 56 ft 4 kts 220°
2026-05-04 22:29 -4.81292 11.88585 61 ft 42 kts 166°
2026-05-04 22:29 -4.81809 11.88718 63 ft 103 kts 167°
2026-05-04 22:30 -4.82563 11.88890 204 ft 117 kts 167°
2026-05-04 22:30 -4.83389 11.89077 560 ft 129 kts 169°
2026-05-04 22:30 -4.84263 11.88809 815 ft 144 kts 225°
2026-05-04 22:30 -4.84707 11.87854 932 ft 166 kts 261°
2026-05-04 22:31 -4.84513 11.86654 1031 ft 185 kts 293°
2026-05-04 22:31 -4.83692 11.85639 1169 ft 197 kts 317°
2026-05-04 22:31 -4.82610 11.84737 1348 ft 202 kts 320°
2026-05-04 22:31 -4.81507 11.83845 1540 ft 205 kts 320°
2026-05-04 22:32 -4.80252 11.83217 1673 ft 209 kts 347°
2026-05-04 22:32 -4.78794 11.83138 1853 ft 210 kts
2026-05-04 22:32 -4.77345 11.83279 2051 ft 209 kts
2026-05-04 22:32 -4.75895 11.83107 2242 ft 208 kts 342°
2026-05-04 22:33 -4.74596 11.82520 2405 ft 209 kts 327°
2026-05-04 22:33 -4.73457 11.81613 2571 ft 209 kts 318°
2026-05-04 22:33 -4.72364 11.80658 2754 ft 208 kts 318°
2026-05-04 22:33 -4.71273 11.79704 2924 ft 208 kts 318°
2026-05-04 22:34 -4.70174 11.78764 3078 ft 207 kts 320°
2026-05-04 22:34 -4.69058 11.77847 3227 ft 208 kts 321°
2026-05-04 22:34 -4.67931 11.76938 3362 ft 208 kts 321°
2026-05-04 22:34 -4.66799 11.76040 3499 ft 207 kts 322°
2026-05-04 22:35 -4.65666 11.75150 3638 ft 207 kts 322°
2026-05-04 22:35 -4.64534 11.74256 3781 ft 207 kts 322°
2026-05-04 22:35 -4.63407 11.73356 3920 ft 207 kts 321°
2026-05-04 22:35 -4.62283 11.72453 4052 ft 208 kts 321°
2026-05-04 22:36 -4.61161 11.71545 4182 ft 208 kts 321°
2026-05-04 22:36 -4.60042 11.70634 4307 ft 207 kts 321°
2026-05-04 22:36 -4.58925 11.69724 4429 ft 207 kts 321°
2026-05-04 22:36 -4.57809 11.68813 4548 ft 207 kts 321°
2026-05-04 22:37 -4.56695 11.67906 4669 ft 206 kts 321°
2026-05-04 22:37 -4.55586 11.66997 4783 ft 206 kts 321°
2026-05-04 22:37 -4.54479 11.66079 4896 ft 207 kts 321°
2026-05-04 22:37 -4.53368 11.65163 5001 ft 206 kts 321°
2026-05-04 22:38 -4.52239 11.64241 4998 ft 213 kts 322°
2026-05-04 22:38 -4.51079 11.63303 4990 ft 215 kts 322°
2026-05-04 22:38 -4.49904 11.62354 4982 ft 218 kts 322°
2026-05-04 22:38 -4.48712 11.61401 4977 ft 220 kts 322°
2026-05-04 22:39 -4.47507 11.60440 4979 ft 222 kts 322°
2026-05-04 22:39 -4.46300 11.59480 4994 ft 221 kts 322°
2026-05-04 22:39 -4.45094 11.58526 4983 ft 221 kts 322°
2026-05-04 22:39 -4.43904 11.57576 4994 ft 221 kts 322°
2026-05-04 22:40 -4.42708 11.56612 4988 ft 219 kts 321°
2026-05-04 22:40 -4.41523 11.55653 4983 ft 219 kts 321°
2026-05-04 22:40 -4.40341 11.54685 4984 ft 219 kts 321°
2026-05-04 22:40 -4.39163 11.53719 4993 ft 218 kts 321°
2026-05-04 22:41 -4.37987 11.52757 4990 ft 218 kts 321°
2026-05-04 22:41 -4.36812 11.51794 4988 ft 219 kts 321°
2026-05-04 22:41 -4.35637 11.50833 4990 ft 218 kts 321°
2026-05-04 22:41 -4.34460 11.49873 4986 ft 218 kts 321°
2026-05-04 22:42 -4.33284 11.48918 4989 ft 218 kts 321°
2026-05-04 22:42 -4.32106 11.47959 4990 ft 218 kts 321°
2026-05-04 22:42 -4.30930 11.47005 4989 ft 218 kts 321°
2026-05-04 22:42 -4.29748 11.46046 4992 ft 219 kts 321°
2026-05-04 22:43 -4.28565 11.45086 4997 ft 219 kts 321°
2026-05-04 22:43 -4.27381 11.44130 4995 ft 218 kts 321°
2026-05-04 22:43 -4.26200 11.43179 4995 ft 219 kts 321°
2026-05-04 22:43 -4.25015 11.42223 4997 ft 218 kts 322°
2026-05-04 22:44 -4.23832 11.41274 4999 ft 218 kts 322°
2026-05-04 22:44 -4.22646 11.40320 4994 ft 219 kts 321°
2026-05-04 22:44 -4.21461 11.39362 4996 ft 219 kts 321°
2026-05-04 22:44 -4.20276 11.38406 4993 ft 219 kts 321°
2026-05-04 22:45 -4.19090 11.37445 4998 ft 219 kts 321°
2026-05-04 22:45 -4.16738 11.35534 5004 ft 219 kts 321°
2026-05-04 22:45 -4.15556 11.34579 4999 ft 219 kts 321°
2026-05-04 22:46 -4.14371 11.33621 4995 ft 219 kts 321°
2026-05-04 22:46 -4.13190 11.32666 5001 ft 218 kts 321°
2026-05-04 22:46 -4.12008 11.31712 4999 ft 218 kts 321°
2026-05-04 22:46 -4.10826 11.30754 5006 ft 219 kts 321°
2026-05-04 22:47 -4.09647 11.29792 5002 ft 218 kts 321°
2026-05-04 22:47 -4.08469 11.28828 4998 ft 219 kts 321°
2026-05-04 22:47 -4.07294 11.27860 5003 ft 218 kts 321°
2026-05-04 22:47 -4.06119 11.26896 4998 ft 219 kts 321°
2026-05-04 22:48 -4.04939 11.25934 5007 ft 218 kts 322°
2026-05-04 22:48 -4.03759 11.24972 5008 ft 219 kts 322°
2026-05-04 22:48 -4.02577 11.24014 5009 ft 219 kts 322°
2026-05-04 22:48 -4.01393 11.23056 5009 ft 218 kts 322°
2026-05-04 22:49 -4.00212 11.22104 5011 ft 219 kts 322°
2026-05-04 22:49 -3.99030 11.21148 5009 ft 218 kts 322°
2026-05-04 22:49 -3.97843 11.20190 5012 ft 219 kts 322°
2026-05-04 22:49 -3.96656 11.19228 5010 ft 220 kts 322°
2026-05-04 22:50 -3.95468 11.18263 5011 ft 219 kts 322°
2026-05-04 22:50 -3.94283 11.17309 5015 ft 218 kts 322°
2026-05-04 22:50 -3.93095 11.16356 5011 ft 219 kts 322°
2026-05-04 22:50 -3.91906 11.15399 5011 ft 219 kts 322°
2026-05-04 22:51 -3.90718 11.14451 5008 ft 218 kts 322°
2026-05-04 22:51 -3.89532 11.13503 5009 ft 219 kts 322°
2026-05-04 22:51 -3.88345 11.12549 5009 ft 219 kts 322°
2026-05-04 22:51 -3.87161 11.11596 5009 ft 219 kts 322°
2026-05-04 22:52 -3.85978 11.10638 5007 ft 218 kts 322°
2026-05-04 22:52 -3.84796 11.09677 5013 ft 219 kts 322°
2026-05-04 22:52 -3.83614 11.08720 5003 ft 218 kts 322°
2026-05-04 22:52 -3.82433 11.07768 5019 ft 218 kts 322°
2026-05-04 22:53 -3.81251 11.06816 5012 ft 218 kts 322°
2026-05-04 22:53 -3.80068 11.05866 5010 ft 218 kts 322°
2026-05-04 22:53 -3.78883 11.04918 5008 ft 218 kts 322°
2026-05-04 22:53 -3.77703 11.03964 5012 ft 219 kts 322°
2026-05-04 22:54 -3.76518 11.03005 5007 ft 219 kts 322°
2026-05-04 22:54 -3.75335 11.02044 5013 ft 220 kts 322°
2026-05-04 22:54 -3.74146 11.01080 5001 ft 220 kts 322°
2026-05-04 22:54 -3.72954 11.00123 5016 ft 220 kts 322°
2026-05-04 22:55 -3.71762 10.99168 5012 ft 220 kts 322°
2026-05-04 22:55 -3.70569 10.98211 5011 ft 220 kts 322°
2026-05-04 22:55 -3.69393 10.97266 5008 ft 220 kts 321°
2026-05-04 22:55 -3.68202 10.96308 5013 ft 219 kts 321°
2026-05-04 22:56 -3.67015 10.95350 5016 ft 220 kts 321°
2026-05-04 22:56 -3.65825 10.94389 5013 ft 220 kts 321°
2026-05-04 22:56 -3.64640 10.93426 5013 ft 219 kts 321°
2026-05-04 22:56 -3.63457 10.92464 5013 ft 220 kts 321°
2026-05-04 22:57 -3.62270 10.91498 5009 ft 219 kts 321°
2026-05-04 22:57 -3.61088 10.90537 5012 ft 219 kts 321°
2026-05-04 22:57 -3.59906 10.89575 5011 ft 219 kts 321°
2026-05-04 22:57 -3.58724 10.88611 5016 ft 219 kts 321°
2026-05-04 22:58 -3.57539 10.87648 5018 ft 219 kts 321°
2026-05-04 22:58 -3.56357 10.86687 5014 ft 219 kts 321°
2026-05-04 22:58 -3.55173 10.85722 5012 ft 219 kts 321°
2026-05-04 22:58 -3.53987 10.84757 5010 ft 220 kts 321°
2026-05-04 22:59 -3.52804 10.83792 5013 ft 219 kts 321°
2026-05-04 22:59 -3.51619 10.82827 5009 ft 220 kts 321°
2026-05-04 22:59 -3.50438 10.81863 5008 ft 219 kts 321°
2026-05-04 22:59 -3.49255 10.80899 5016 ft 219 kts 321°
2026-05-04 23:00 -3.48070 10.79936 5009 ft 220 kts 321°
2026-05-04 23:00 -3.46884 10.78973 5018 ft 220 kts 321°
2026-05-04 23:00 -3.45698 10.78009 5014 ft 220 kts 321°
2026-05-04 23:00 -3.44511 10.77043 5022 ft 220 kts 321°
2026-05-04 23:01 -3.43327 10.76082 5026 ft 219 kts 321°
2026-05-04 23:01 -3.42139 10.75120 5015 ft 220 kts 321°
2026-05-04 23:01 -3.40950 10.74158 5013 ft 220 kts 321°
2026-05-04 23:01 -3.39763 10.73196 5012 ft 219 kts 321°
2026-05-04 23:02 -3.38979 10.72561 5017 ft 219 kts 321°
2026-05-04 23:02 -3.37391 10.71277 5011 ft 219 kts 321°
2026-05-04 23:02 -3.36201 10.70320 5011 ft 220 kts 321°
2026-05-04 23:02 -3.35413 10.69688 5007 ft 219 kts 321°
2026-05-04 23:03 -3.34218 10.68730 5008 ft 220 kts 321°
2026-05-04 23:03 -3.33026 10.67771 5011 ft 220 kts 321°
2026-05-04 23:03 -3.31831 10.66813 5009 ft 220 kts 321°
2026-05-04 23:03 -3.30635 10.65848 5006 ft 221 kts 321°
2026-05-04 23:04 -3.29443 10.64884 5009 ft 220 kts 321°
2026-05-04 23:04 -3.28250 10.63922 5010 ft 220 kts 321°
2026-05-04 23:04 -3.27053 10.62956 5009 ft 221 kts 321°
2026-05-04 23:04 -3.25859 10.61994 5008 ft 220 kts 321°
2026-05-04 23:05 -3.24666 10.61037 5010 ft 220 kts 321°
2026-05-04 23:05 -3.23475 10.60079 5009 ft 220 kts 321°
2026-05-04 23:05 -3.22278 10.59114 5010 ft 220 kts 321°
2026-05-04 23:05 -3.21087 10.58154 5006 ft 220 kts 321°
2026-05-04 23:06 -3.19894 10.57189 5006 ft 220 kts 321°
2026-05-04 23:06 -3.18704 10.56223 5010 ft 221 kts 321°
2026-05-04 23:06 -3.17513 10.55258 5013 ft 220 kts 321°
2026-05-04 23:06 -3.16319 10.54292 5006 ft 221 kts 321°
2026-05-04 23:07 -3.15130 10.53329 5010 ft 220 kts 321°
2026-05-04 23:07 -3.13940 10.52366 5004 ft 220 kts 321°
2026-05-04 23:07 -3.12749 10.51403 5013 ft 220 kts 321°
2026-05-04 23:07 -3.11559 10.50438 5010 ft 221 kts 321°
2026-05-04 23:08 -3.10363 10.49470 5013 ft 221 kts 321°
2026-05-04 23:08 -3.09165 10.48501 5005 ft 222 kts 321°
2026-05-04 23:08 -3.07967 10.47530 5005 ft 221 kts 321°
2026-05-04 23:08 -3.06771 10.46562 5010 ft 221 kts 321°
2026-05-04 23:09 -3.05573 10.45597 5009 ft 221 kts 321°
2026-05-04 23:09 -3.04394 10.44644 5003 ft 221 kts 321°
2026-05-04 23:09 -3.03201 10.43680 5006 ft 220 kts 321°
2026-05-04 23:09 -3.02009 10.42720 5006 ft 220 kts 321°
2026-05-04 23:10 -3.00813 10.41756 5002 ft 221 kts 321°
2026-05-04 23:10 -2.99617 10.40791 5016 ft 220 kts 321°
2026-05-04 23:10 -2.98426 10.39829 5007 ft 220 kts 321°
2026-05-04 23:10 -2.97238 10.38869 5013 ft 220 kts 321°
2026-05-04 23:11 -2.96045 10.37904 5005 ft 220 kts 321°
2026-05-04 23:11 -2.94853 10.36942 5006 ft 220 kts 321°
2026-05-04 23:11 -2.93661 10.35979 5005 ft 220 kts 321°
2026-05-04 23:11 -2.92472 10.35017 5006 ft 220 kts 321°
2026-05-04 23:12 -2.91280 10.34055 5008 ft 220 kts 321°
2026-05-04 23:12 -2.90088 10.33094 5003 ft 220 kts 321°
2026-05-04 23:12 -2.88896 10.32132 5005 ft 220 kts 321°
2026-05-04 23:12 -2.87705 10.31170 5005 ft 220 kts 321°
2026-05-04 23:13 -2.86514 10.30208 5009 ft 220 kts 321°
2026-05-04 23:13 -2.85321 10.29245 5010 ft 220 kts 321°
2026-05-04 23:13 -2.84129 10.28284 5008 ft 220 kts 321°
2026-05-04 23:13 -2.82936 10.27323 5005 ft 220 kts 321°
2026-05-04 23:14 -2.81743 10.26361 5004 ft 220 kts 321°
2026-05-04 23:14 -2.80550 10.25400 5006 ft 220 kts 321°
2026-05-04 23:14 -2.79359 10.24440 5004 ft 220 kts 321°
2026-05-04 23:14 -2.78169 10.23481 5010 ft 220 kts 321°
2026-05-04 23:15 -2.76977 10.22520 4998 ft 220 kts 321°
2026-05-04 23:15 -2.75790 10.21562 5003 ft 220 kts 321°
2026-05-04 23:15 -2.74603 10.20603 5006 ft 219 kts 321°
2026-05-04 23:15 -2.73413 10.19640 5000 ft 220 kts 321°
2026-05-04 23:16 -2.72223 10.18679 5006 ft 221 kts 321°
2026-05-04 23:16 -2.71029 10.17715 5004 ft 221 kts 321°
2026-05-04 23:16 -2.69852 10.16764 5008 ft 220 kts 321°
2026-05-04 23:16 -2.68659 10.15801 5005 ft 221 kts 321°
2026-05-04 23:17 -2.67464 10.14833 5007 ft 222 kts 321°
2026-05-04 23:17 -2.66266 10.13866 5007 ft 221 kts 321°
2026-05-04 23:17 -2.65067 10.12899 5003 ft 222 kts 321°
2026-05-04 23:17 -2.63861 10.11924 5003 ft 223 kts 321°
2026-05-04 23:18 -2.62658 10.10951 4998 ft 222 kts 321°
2026-05-04 23:18 -2.61462 10.09983 5001 ft 221 kts 321°
2026-05-04 23:18 -2.60267 10.09018 5005 ft 220 kts 321°
2026-05-04 23:18 -2.59075 10.08057 5000 ft 220 kts 321°
2026-05-04 23:19 -2.57885 10.07096 5008 ft 220 kts 321°
2026-05-04 23:19 -2.56689 10.06133 5000 ft 221 kts 321°
2026-05-04 23:19 -2.55493 10.05169 5006 ft 220 kts 321°
2026-05-04 23:19 -2.54299 10.04206 5004 ft 221 kts 321°
2026-05-04 23:20 -2.53101 10.03241 5002 ft 221 kts 321°
2026-05-04 23:20 -2.51903 10.02274 5003 ft 221 kts 321°
2026-05-04 23:20 -2.50710 10.01314 5011 ft 220 kts 321°
2026-05-04 23:20 -2.49513 10.00350 5009 ft 221 kts 321°
2026-05-04 23:21 -2.48316 9.99388 5013 ft 220 kts 321°
2026-05-04 23:21 -2.47121 9.98429 5008 ft 220 kts 321°
2026-05-04 23:21 -2.45922 9.97466 5007 ft 221 kts 321°
2026-05-04 23:21 -2.44720 9.96500 5011 ft 222 kts 321°
2026-05-04 23:22 -2.43521 9.95534 5005 ft 222 kts 321°
2026-05-04 23:22 -2.42321 9.94566 5005 ft 222 kts 321°
2026-05-04 23:22 -2.41118 9.93595 5007 ft 222 kts 321°
2026-05-04 23:22 -2.39920 9.92627 5004 ft 221 kts 321°
2026-05-04 23:23 -2.38719 9.91659 5006 ft 222 kts 321°
2026-05-04 23:23 -2.37520 9.90695 5004 ft 221 kts 321°
2026-05-04 23:23 -2.36322 9.89735 5005 ft 221 kts 321°
2026-05-04 23:23 -2.35124 9.88775 5003 ft 221 kts 321°
2026-05-04 23:24 -2.33925 9.87812 4997 ft 221 kts 321°
2026-05-04 23:24 -2.32724 9.86851 5004 ft 221 kts 321°
2026-05-04 23:24 -2.31518 9.85885 5006 ft 223 kts 321°
2026-05-04 23:24 -2.30314 9.84917 5002 ft 222 kts 321°
2026-05-04 23:25 -2.29107 9.83950 5002 ft 221 kts 321°
2026-05-04 23:25 -2.27903 9.82989 5006 ft 222 kts 321°
2026-05-04 23:25 -2.26700 9.82025 5009 ft 221 kts 321°
2026-05-04 23:25 -2.25513 9.81078 5015 ft 221 kts 321°
2026-05-04 23:26 -2.24316 9.80112 5010 ft 221 kts 321°
2026-05-04 23:26 -2.23105 9.79130 5012 ft 221 kts 321°
2026-05-04 23:26 -2.21926 9.78172 5009 ft 221 kts 321°
2026-05-04 23:26 -2.20733 9.77204 5010 ft 221 kts 321°
2026-05-04 23:27 -2.19538 9.76233 5010 ft 221 kts 321°
2026-05-04 23:27 -2.18343 9.75262 5007 ft 221 kts 321°
2026-05-04 23:27 -2.17147 9.74294 5014 ft 221 kts 321°
2026-05-04 23:27 -2.15951 9.73324 5012 ft 222 kts 321°
2026-05-04 23:28 -2.14755 9.72357 5016 ft 220 kts 321°
2026-05-04 23:28 -2.13567 9.71398 5010 ft 220 kts 321°
2026-05-04 23:28 -2.12374 9.70435 5010 ft 221 kts 321°
2026-05-04 23:28 -2.11179 9.69472 5011 ft 220 kts 321°
2026-05-04 23:29 -2.09983 9.68506 5010 ft 222 kts 321°
2026-05-04 23:29 -2.08786 9.67534 5007 ft 221 kts 321°
2026-05-04 23:29 -2.07590 9.66563 5008 ft 222 kts 321°
2026-05-04 23:29 -2.06397 9.65597 5014 ft 220 kts 321°
2026-05-04 23:30 -2.05201 9.64627 5009 ft 221 kts 321°
2026-05-04 23:30 -2.04008 9.63660 5010 ft 221 kts 321°
2026-05-04 23:30 -2.02813 9.62694 5005 ft 221 kts 321°
2026-05-04 23:30 -2.01623 9.61732 5011 ft 221 kts 321°
2026-05-04 23:31 -2.00427 9.60763 5008 ft 221 kts 321°
2026-05-04 23:31 -1.99229 9.59802 5006 ft 221 kts 323°
2026-05-04 23:31 -1.97968 9.58918 5012 ft 221 kts 326°
2026-05-04 23:31 -1.96696 9.58057 5007 ft 221 kts 327°
2026-05-04 23:32 -1.95424 9.57201 5020 ft 220 kts 327°
2026-05-04 23:32 -1.94148 9.56344 5008 ft 221 kts 327°
2026-05-04 23:32 -1.92887 9.55501 5011 ft 221 kts 327°
2026-05-04 23:32 -1.91592 9.54639 5009 ft 221 kts 327°
2026-05-04 23:33 -1.90326 9.53798 5007 ft 222 kts 327°
2026-05-04 23:33 -1.89026 9.52934 5006 ft 222 kts 327°
2026-05-04 23:33 -1.87761 9.52092 5016 ft 222 kts 327°
2026-05-04 23:33 -1.86480 9.51232 5010 ft 222 kts 327°
2026-05-04 23:34 -1.85204 9.50375 5003 ft 221 kts 327°
2026-05-04 23:34 -1.83927 9.49519 5009 ft 221 kts 327°
2026-05-04 23:34 -1.82650 9.48671 5005 ft 220 kts 327°
2026-05-04 23:34 -1.81375 9.47823 5012 ft 220 kts 327°
2026-05-04 23:35 -1.80100 9.46971 5007 ft 220 kts 327°
2026-05-04 23:35 -1.78825 9.46120 5005 ft 221 kts 327°
2026-05-04 23:35 -1.77542 9.45260 5005 ft 222 kts 327°
2026-05-04 23:35 -1.76255 9.44395 5000 ft 223 kts 327°
2026-05-04 23:36 -1.74972 9.43536 5017 ft 222 kts 327°
2026-05-04 23:36 -1.73690 9.42675 5006 ft 222 kts 327°
2026-05-04 23:36 -1.72409 9.41821 5000 ft 221 kts 327°
2026-05-04 23:36 -1.71131 9.40970 5007 ft 221 kts 327°
2026-05-04 23:37 -1.69853 9.40110 4997 ft 222 kts 327°
2026-05-04 23:37 -1.68576 9.39249 5006 ft 222 kts 327°
2026-05-04 23:37 -1.67292 9.38376 4999 ft 224 kts 327°
2026-05-04 23:37 -1.66006 9.37501 5001 ft 223 kts 327°
2026-05-04 23:38 -1.64725 9.36636 5001 ft 223 kts 327°
2026-05-04 23:38 -1.63440 9.35770 5000 ft 222 kts 327°
2026-05-04 23:38 -1.62159 9.34908 4997 ft 222 kts 327°
2026-05-04 23:38 -1.60880 9.34044 5003 ft 222 kts 327°
2026-05-04 23:39 -1.59600 9.33178 5000 ft 222 kts 327°
2026-05-04 23:39 -1.58318 9.32312 5003 ft 223 kts 327°
2026-05-04 23:39 -1.57035 9.31438 4997 ft 224 kts 327°
2026-05-04 23:39 -1.55751 9.30561 4998 ft 223 kts 327°
2026-05-04 23:40 -1.54465 9.29694 5000 ft 224 kts 327°
2026-05-04 23:40 -1.53177 9.28825 4999 ft 222 kts 327°
2026-05-04 23:40 -1.51896 9.27962 4994 ft 222 kts 327°
2026-05-04 23:40 -1.50613 9.27099 5000 ft 222 kts 327°
2026-05-04 23:41 -1.49335 9.26238 4996 ft 221 kts 327°
2026-05-04 23:41 -1.48065 9.25375 4995 ft 221 kts 327°
2026-05-04 23:41 -1.46799 9.24509 5002 ft 220 kts 327°
2026-05-04 23:41 -1.45533 9.23644 5004 ft 220 kts 327°
2026-05-04 23:42 -1.44268 9.22788 4999 ft 220 kts 327°
2026-05-04 23:42 -1.43001 9.21933 4998 ft 220 kts 327°
2026-05-04 23:42 -1.41728 9.21078 5001 ft 220 kts 327°
2026-05-04 23:42 -1.40456 9.20223 5000 ft 221 kts 327°
2026-05-04 23:43 -1.39186 9.19367 4997 ft 221 kts 327°
2026-05-04 23:43 -1.37927 9.18524 4998 ft 221 kts 327°
2026-05-04 23:43 -1.36630 9.17658 4998 ft 221 kts 328°
2026-05-04 23:43 -1.35367 9.16816 4988 ft 221 kts 327°
2026-05-04 23:44 -1.34089 9.15966 4999 ft 221 kts 327°
2026-05-04 23:44 -1.32812 9.15117 5002 ft 220 kts 328°
2026-05-04 23:44 -1.31534 9.14268 5001 ft 221 kts 327°
2026-05-04 23:44 -1.30259 9.13416 4999 ft 221 kts 327°
2026-05-04 23:45 -1.28985 9.12562 4999 ft 221 kts 327°
2026-05-04 23:45 -1.27710 9.11705 4997 ft 221 kts 327°
2026-05-04 23:45 -1.26434 9.10845 4997 ft 221 kts 327°
2026-05-04 23:45 -1.25162 9.09986 4993 ft 221 kts 327°
2026-05-04 23:46 -1.23891 9.09127 5001 ft 221 kts 327°
2026-05-04 23:46 -1.22614 9.08260 4994 ft 222 kts 327°
2026-05-04 23:46 -1.21334 9.07393 4996 ft 223 kts 327°
2026-05-04 23:46 -1.20051 9.06518 4991 ft 224 kts 327°
2026-05-04 23:47 -1.18763 9.05632 4994 ft 224 kts 327°
2026-05-04 23:47 -1.17476 9.04749 4996 ft 225 kts 327°
2026-05-04 23:47 -1.16184 9.03870 4995 ft 225 kts 327°
2026-05-04 23:47 -1.14887 9.02991 4994 ft 224 kts 328°
2026-05-04 23:48 -1.13589 9.02123 4995 ft 225 kts 328°
2026-05-04 23:48 -1.12290 9.01259 4995 ft 222 kts 328°
2026-05-04 23:48 -1.11006 9.00408 4994 ft 221 kts 328°
2026-05-04 23:48 -1.09726 8.99555 4992 ft 221 kts 328°
2026-05-04 23:49 -1.08446 8.98703 4990 ft 221 kts 328°
2026-05-04 23:49 -1.07165 8.97847 4990 ft 222 kts 328°
2026-05-04 23:49 -1.05884 8.96990 4993 ft 222 kts 328°
2026-05-04 23:49 -1.04601 8.96130 4991 ft 222 kts 328°
2026-05-04 23:50 -1.03323 8.95270 4993 ft 222 kts 328°
2026-05-04 23:50 -1.02063 8.94419 4992 ft 221 kts 327°
2026-05-04 23:50 -1.00789 8.93556 4988 ft 221 kts 327°
2026-05-04 23:50 -0.99516 8.92693 4994 ft 222 kts 327°
2026-05-04 23:51 -0.98238 8.91826 4992 ft 222 kts 327°
2026-05-04 23:51 -0.96960 8.90959 4993 ft 222 kts 327°
2026-05-04 23:51 -0.95680 8.90091 4994 ft 222 kts 328°
2026-05-04 23:51 -0.94398 8.89223 4982 ft 222 kts 328°
2026-05-04 23:52 -0.93116 8.88362 4986 ft 222 kts 328°
2026-05-04 23:52 -0.92251 8.87785 4993 ft 221 kts 328°
2026-05-04 23:52 -0.90974 8.86934 4996 ft 221 kts 328°
2026-05-04 23:52 -0.89715 8.86090 4991 ft 222 kts 328°
2026-05-04 23:53 -0.88432 8.85226 4996 ft 223 kts 328°
2026-05-04 23:53 -0.87146 8.84361 4992 ft 222 kts 328°
2026-05-04 23:53 -0.85870 8.83498 4993 ft 222 kts 328°
2026-05-04 23:53 -0.84591 8.82632 4993 ft 222 kts 328°
2026-05-04 23:54 -0.83306 8.81768 4992 ft 223 kts 328°
2026-05-04 23:54 -0.82023 8.80906 4996 ft 222 kts 328°
2026-05-04 23:54 -0.80741 8.80047 4996 ft 222 kts 328°
2026-05-04 23:54 -0.79459 8.79183 4997 ft 223 kts 327°
2026-05-04 23:55 -0.78175 8.78315 4995 ft 223 kts 328°
2026-05-04 23:55 -0.76889 8.77448 4997 ft 223 kts 328°
2026-05-04 23:55 -0.74317 8.75711 4997 ft 223 kts 328°
2026-05-04 23:56 -0.73026 8.74843 4994 ft 224 kts 328°
2026-05-04 23:56 -0.71739 8.73976 4996 ft 223 kts 328°
2026-05-04 23:56 -0.70455 8.73115 4996 ft 221 kts 328°
2026-05-04 23:56 -0.69175 8.72250 4987 ft 224 kts 328°
2026-05-04 23:57 -0.67880 8.71379 4972 ft 225 kts 328°
2026-05-04 23:57 -0.66582 8.70506 4979 ft 225 kts 328°
2026-05-04 23:57 -0.65289 8.69629 4973 ft 225 kts 328°
2026-05-04 23:57 -0.63996 8.68765 4980 ft 223 kts 328°
2026-05-04 23:58 -0.62698 8.67900 4947 ft 225 kts 328°
2026-05-04 23:58 -0.61403 8.67026 4966 ft 223 kts 328°
2026-05-04 23:58 -0.60117 8.66157 4975 ft 223 kts 328°
2026-05-04 23:58 -0.58833 8.65285 4973 ft 224 kts 328°
2026-05-04 23:59 -0.57539 8.64409 4937 ft 225 kts 328°
2026-05-04 23:59 -0.56237 8.63559 4968 ft 223 kts 336°
2026-05-04 23:59 -0.54756 8.63228 4979 ft 219 kts
2026-05-04 23:59 -0.53313 8.63635 4970 ft 216 kts 33°
2026-05-05 00:00 -0.52233 8.64641 4965 ft 212 kts 54°
2026-05-05 00:00 -0.51658 8.65421 4971 ft 209 kts 56°
2026-05-05 00:00 -0.50547 8.67011 4979 ft 208 kts 57°
2026-05-05 00:00 -0.49731 8.68204 4984 ft 209 kts 57°
2026-05-05 00:01 -0.48913 8.69402 4976 ft 209 kts 57°
2026-05-05 00:01 -0.48098 8.70590 4976 ft 207 kts 57°
2026-05-05 00:01 -0.47282 8.71776 4980 ft 206 kts 57°
2026-05-05 00:01 -0.46482 8.72950 4984 ft 207 kts 57°
2026-05-05 00:02 -0.45667 8.74143 4978 ft 208 kts 57°
2026-05-05 00:02 -0.44852 8.75335 4982 ft 208 kts 58°
2026-05-05 00:02 -0.44120 8.76587 4980 ft 209 kts 63°
2026-05-05 00:02 -0.43420 8.77856 4979 ft 209 kts 63°
2026-05-05 00:03 -0.42708 8.79113 4980 ft 207 kts 62°
2026-05-05 00:03 -0.41986 8.80354 4986 ft 207 kts 61°
2026-05-05 00:03 -0.41248 8.81596 4971 ft 209 kts 60°
2026-05-05 00:03 -0.40488 8.82833 4976 ft 207 kts 60°
2026-05-05 00:04 -0.39717 8.84046 4977 ft 207 kts 59°
2026-05-05 00:04 -0.38936 8.85259 4980 ft 208 kts 58°
2026-05-05 00:04 -0.38139 8.86464 4983 ft 208 kts 58°
2026-05-05 00:04 -0.37326 8.87657 4984 ft 208 kts 57°
2026-05-05 00:05 -0.36498 8.88840 4981 ft 208 kts 57°
2026-05-05 00:05 -0.35655 8.90020 4979 ft 208 kts 56°
2026-05-05 00:05 -0.34796 8.91185 4979 ft 207 kts 55°
2026-05-05 00:05 -0.33925 8.92335 4981 ft 208 kts 54°
2026-05-05 00:06 -0.33039 8.93485 4987 ft 209 kts 54°
2026-05-05 00:06 -0.32039 8.94533 4967 ft 210 kts 40°
2026-05-05 00:06 -0.30852 8.95375 4987 ft 209 kts 38°
2026-05-05 00:06 -0.29665 8.96230 4980 ft 211 kts 39°
2026-05-05 00:07 -0.28501 8.97122 4981 ft 211 kts 40°
2026-05-05 00:07 -0.27350 8.98030 4978 ft 210 kts 41°
2026-05-05 00:07 -0.26205 8.98938 4978 ft 210 kts 41°
2026-05-05 00:07 -0.25060 8.99854 4979 ft 212 kts 40°
2026-05-05 00:08 -0.23896 9.00757 4966 ft 211 kts 39°
2026-05-05 00:08 -0.22710 9.01610 4977 ft 210 kts 38°
2026-05-05 00:08 -0.21501 9.02433 4980 ft 211 kts 36°
2026-05-05 00:08 -0.20265 9.03224 4981 ft 211 kts 34°
2026-05-05 00:09 -0.18997 9.03962 4985 ft 210 kts 32°
2026-05-05 00:09 -0.17705 9.04647 4984 ft 211 kts 30°
2026-05-05 00:09 -0.16382 9.05296 4978 ft 212 kts 28°
2026-05-05 00:09 -0.15038 9.05908 4979 ft 213 kts 26°
2026-05-05 00:10 -0.13675 9.06493 4957 ft 214 kts 26°
2026-05-05 00:10 -0.12308 9.07076 4967 ft 214 kts 26°
2026-05-05 00:10 -0.10960 9.07656 4971 ft 214 kts 26°
2026-05-05 00:10 -0.09594 9.08245 4970 ft 214 kts 26°
2026-05-05 00:11 -0.08238 9.08850 4970 ft 213 kts 27°
2026-05-05 00:11 -0.06905 9.09488 4983 ft 213 kts 28°
2026-05-05 00:11 -0.05590 9.10165 4982 ft 212 kts 30°
2026-05-05 00:11 -0.04293 9.10863 4984 ft 212 kts 31°
2026-05-05 00:12 -0.03004 9.11593 4976 ft 213 kts 32°
2026-05-05 00:12 -0.01731 9.12342 4976 ft 212 kts 33°
2026-05-05 00:12 -0.00467 9.13103 4969 ft 213 kts 33°
2026-05-05 00:12 0.00800 9.13875 4970 ft 213 kts 33°
2026-05-05 00:13 0.02060 9.14654 4978 ft 213 kts 34°
2026-05-05 00:13 0.03316 9.15431 4977 ft 212 kts 33°
2026-05-05 00:13 0.04579 9.16196 4978 ft 213 kts 33°
2026-05-05 00:13 0.05845 9.16958 4974 ft 213 kts 33°
2026-05-05 00:14 0.07119 9.17717 4982 ft 213 kts 32°
2026-05-05 00:14 0.08404 9.18449 4976 ft 213 kts 31°
2026-05-05 00:14 0.09699 9.19164 4985 ft 213 kts 31°
2026-05-05 00:14 0.11000 9.19875 4979 ft 214 kts 30°
2026-05-05 00:15 0.12310 9.20573 4971 ft 213 kts 30°
2026-05-05 00:15 0.13627 9.21258 4934 ft 215 kts 30°
2026-05-05 00:15 0.14976 9.21955 4798 ft 221 kts 30°
2026-05-05 00:15 0.16347 9.22675 4640 ft 225 kts 30°
2026-05-05 00:16 0.17741 9.23414 4476 ft 227 kts 30°
2026-05-05 00:16 0.19143 9.24169 4295 ft 230 kts 31°
2026-05-05 00:16 0.20542 9.24948 4100 ft 230 kts 31°
2026-05-05 00:16 0.21931 9.25721 3895 ft 228 kts 31°
2026-05-05 00:17 0.23308 9.26484 3742 ft 225 kts 31°
2026-05-05 00:17 0.24644 9.27239 3582 ft 223 kts 32°
2026-05-05 00:17 0.26013 9.28020 3369 ft 225 kts 32°
2026-05-05 00:17 0.27366 9.28779 3173 ft 226 kts 32°
2026-05-05 00:18 0.28740 9.29553 2995 ft 226 kts 32°
2026-05-05 00:18 0.30110 9.30334 2811 ft 227 kts 31°
2026-05-05 00:18 0.31496 9.31110 2639 ft 229 kts 31°
2026-05-05 00:18 0.32893 9.31883 2452 ft 229 kts 30°
2026-05-05 00:19 0.34285 9.32650 2317 ft 229 kts 30°
2026-05-05 00:19 0.35687 9.33411 2161 ft 230 kts 30°
2026-05-05 00:19 0.37094 9.34174 1998 ft 231 kts 30°
2026-05-05 00:19 0.38505 9.34939 1834 ft 231 kts 30°
2026-05-05 00:20 0.39914 9.35708 1675 ft 232 kts 30°
2026-05-05 00:20 0.41406 9.36309 1484 ft 233 kts
2026-05-05 00:20 0.42996 9.36207 1325 ft 230 kts 342°
2026-05-05 00:20 0.44479 9.35590 1176 ft 231 kts 334°
2026-05-05 00:21 0.45931 9.34909 1016 ft 229 kts 333°
2026-05-05 00:21 0.47362 9.34226 935 ft 220 kts 333°
2026-05-05 00:21 0.48647 9.33600 946 ft 191 kts 333°
2026-05-05 00:21 0.49762 9.33078 944 ft 164 kts 340°
2026-05-05 00:22 0.50801 9.33091 958 ft 142 kts 23°
2026-05-05 00:22 0.51489 9.33709 1010 ft 133 kts 58°
2026-05-05 00:22 0.52021 9.34528 1024 ft 151 kts 59°
2026-05-05 00:22 0.52625 9.35455 1009 ft 165 kts 59°
2026-05-05 00:23 0.53089 9.36499 986 ft 166 kts 83°
2026-05-05 00:23 0.52970 9.37556 1015 ft 144 kts 121°
2026-05-05 00:23 0.52380 9.38161 800 ft 106 kts 152°
2026-05-05 00:23 0.51732 9.38495 622 ft 107 kts 162°
2026-05-05 00:24 0.51034 9.38749 458 ft 107 kts 157°
2026-05-05 00:24 0.50371 9.39076 360 ft 106 kts 153°
2026-05-05 00:24 0.49704 9.39397 266 ft 104 kts 154°
2026-05-05 00:24 0.49057 9.39703 192 ft 102 kts 155°
2026-05-05 00:25 0.48426 9.40009 207 ft 104 kts 155°
2026-05-05 00:25 0.47766 9.40320 116 ft 103 kts 156°
2026-05-05 00:25 0.47135 9.40625 61 ft 98 kts 156°
2026-05-05 00:25 0.46557 9.40899 33 ft 80 kts 156°
2026-05-05 00:26 0.46158 9.41089 31 ft 46 kts 155°
2026-05-05 00:26 0.45950 9.41188 29 ft 28 kts 155°
2026-05-05 00:26 0.45844 9.41213 30 ft 13 kts 210°
2026-05-05 00:26 0.45798 9.41160 31 ft 8 kts 201°
2026-05-05 00:27 0.45743 9.41162 31 ft 8 kts 153°
2026-05-05 00:27 0.45691 9.41188 31 ft 9 kts 154°
2026-05-05 00:27 0.45627 9.41218 31 ft 12 kts 155°
2026-05-05 00:27 0.45571 9.41203 31 ft 10 kts 244°
2026-05-05 00:28 0.45545 9.41161 32 ft 0 kts 241°